Weather History for KPVU - October, 2012

Change the Weather History Date:

Sunday, October 14, 2012

  Actual Average Record
Temperature  
Mean Temperature 52 °F -  
Max Temperature 64 °F 63 °F 78 °F (1989)
Min Temperature 39 °F 35 °F 26 °F (2008)
Degree Days  
Heating Degree Days 14    
Growing Degree Days 2 (Base 50)    
Moisture  
Dew Point 41 °F    
Average Humidity 79    
Maximum Humidity 100    
Minimum Humidity 34    
Precipitation  
Precipitation 0.00 in - - ()
Sea Level Pressure  
Sea Level Pressure 30.33 in    
Wind  
Wind Speed 2 mph (SE)    
Max Wind Speed 7 mph    
Max Gust Speed -    
Visibility 12 miles    
Events      
Averages and records for this station are not official NWS values.
T = Trace of Precipitation, MM = Missing Value Source: NWS Daily Summary

Daily Weather History Graph

Daily Weather History Graph

Search for Another Location

Airport or City:

Trip Planner

Search our weather history database for the weather conditions in past years. The results will help you decide how hot, cold, wet, or windy it might be!

Date:

Astronomy

Oct. 14, 2012 Rise Set
Actual Time 7:37 AM MDT 6:47 PM MDT
Civil Twilight 7:09 AM MDT 7:15 PM MDT
Nautical Twilight 6:38 AM MDT 7:46 PM MDT
Astronomical Twilight 6:06 AM MDT 8:17 PM MDT
Moon 6:40 AM MDT (10/14) 6:09 PM MDT (10/14)
Length of Visible Light 12h 05m
Length of Day
11h 10m
Waning Crescent, 1% of the Moon is Illuminated
Oct 14
Waning Crescent
Oct 15
New
Oct 21
First Quarter
Oct 29
Full
Nov 6
Last Quarter

Hourly Weather History & Observations

Time (MDT) Temp. Windchill Dew Point Humidity Pressure Visibility Wind Dir Wind Speed Gust Speed Precip Events Conditions
1:35 AM 46.4 °F - 42.8 °F 87% 30.33 in 10.0 mi Calm Calm - N/A   Clear
1:55 AM 44.6 °F - 42.8 °F 93% 30.33 in 10.0 mi Calm Calm - N/A   Clear
2:15 AM 44.6 °F - 42.8 °F 93% 30.34 in 10.0 mi Calm Calm - N/A   Clear
2:35 AM 44.6 °F - 42.8 °F 93% 30.34 in 10.0 mi Calm Calm - N/A   Clear
2:55 AM 44.6 °F - 42.8 °F 93% 30.35 in 10.0 mi Calm Calm - N/A   Clear
3:15 AM 42.8 °F 38.6 °F 39.2 °F 87% 30.35 in 10.0 mi SE 6.9 mph - N/A   Clear
3:35 AM 44.6 °F 40.7 °F 41.0 °F 87% 30.35 in 10.0 mi ESE 6.9 mph - N/A   Clear
3:55 AM 42.8 °F 40.1 °F 39.2 °F 87% 30.35 in 10.0 mi ESE 4.6 mph - N/A   Clear
4:15 AM 42.8 °F - 39.2 °F 87% 30.35 in 10.0 mi Calm Calm - N/A   Clear
4:35 AM 42.8 °F 41.1 °F 39.2 °F 87% 30.35 in 10.0 mi East 3.5 mph - N/A   Clear
4:55 AM 42.8 °F 41.1 °F 39.2 °F 87% 30.35 in 10.0 mi SE 3.5 mph - N/A   Clear
5:35 AM 41.0 °F - 37.4 °F 87% 30.36 in 10.0 mi Calm Calm - N/A   Clear
5:56 AM 39.2 °F - 35.6 °F 87% 30.37 in 10.0 mi Calm Calm - N/A   Clear
6:15 AM 42.8 °F 41.1 °F 39.2 °F 87% 30.37 in 10.0 mi ESE 3.5 mph - N/A   Clear
6:35 AM 39.2 °F 37.0 °F 37.4 °F 93% 30.38 in 10.0 mi ESE 3.5 mph - N/A   Clear
6:50 AM 39.2 °F - 35.6 °F 87% 30.38 in 15.0 mi Calm Calm - N/A   Clear
7:55 AM 39.2 °F 35.0 °F 37.4 °F 93% 30.39 in 15.0 mi Variable 5.8 mph - N/A   Partly Cloudy
8:56 AM 46.4 °F - 46.4 °F 100% 30.41 in 15.0 mi Calm Calm - N/A   Clear
9:50 AM 48.2 °F - 42.8 °F 82% 30.42 in 15.0 mi Calm Calm - N/A   Partly Cloudy
10:50 AM 44.6 °F 40.7 °F 42.8 °F 93% 30.42 in 15.0 mi SSE 6.9 mph - N/A   Partly Cloudy
11:50 AM 53.6 °F - 42.8 °F 67% 30.41 in 15.0 mi Variable 4.6 mph - N/A   Partly Cloudy
12:55 PM 57.2 °F - 42.8 °F 59% 30.38 in 15.0 mi Variable 3.5 mph - N/A   Partly Cloudy
1:55 PM 59.0 °F - 42.8 °F 55% 30.36 in 15.0 mi Variable 3.5 mph - N/A   Partly Cloudy
2:47 PM 60.8 °F - 39.2 °F 45% 30.34 in 15.0 mi Calm Calm - N/A   Partly Cloudy
3:53 PM 64.4 °F - 35.6 °F 34% 30.32 in 15.0 mi SW 3.5 mph - N/A   Partly Cloudy
4:50 PM 62.6 °F - 39.2 °F 42% 30.30 in 15.0 mi Variable 5.8 mph - N/A   Partly Cloudy
6:50 PM 57.2 °F - 42.8 °F 59% 30.26 in 15.0 mi Variable 4.6 mph - N/A   Partly Cloudy
7:50 PM 51.8 °F - 44.6 °F 76% 30.26 in 15.0 mi Calm Calm - N/A   Partly Cloudy
8:50 PM 51.8 °F - 42.8 °F 71% 30.27 in 15.0 mi Calm Calm - N/A   Clear
9:15 PM 50.0 °F - 42.8 °F 76% 30.26 in 10.0 mi SE 3.5 mph - N/A   Clear
9:35 PM 50.0 °F - 42.8 °F 76% 30.27 in 10.0 mi Calm Calm - N/A   Clear
9:55 PM 48.2 °F - 42.8 °F 82% 30.27 in 10.0 mi Calm Calm - N/A   Clear
10:15 PM 48.2 °F - 42.8 °F 82% 30.26 in 10.0 mi SE 4.6 mph - N/A   Clear
10:35 PM 48.2 °F - 41.0 °F 76% 30.26 in 10.0 mi SE 5.8 mph - N/A   Clear
10:55 PM 46.4 °F 43.5 °F 39.2 °F 76% 30.26 in 10.0 mi SE 5.8 mph - N/A   Clear
11:15 PM 44.6 °F - 39.2 °F 81% 30.26 in 10.0 mi Calm Calm - N/A   Clear
11:35 PM 48.2 °F - 39.2 °F 71% 30.26 in 10.0 mi ESE 4.6 mph - N/A   Clear
11:55 PM 46.4 °F - 39.2 °F 76% 30.26 in 10.0 mi Calm Calm - N/A   Clear